| time (UTC) | temp F | wind direction | speed MPH | gust MPH | rain 1hr in | rain 24hr in | rain mn in | humidity % | barometer mb |
| 20260510192516 | 46 | 180 | 1.0 | 3.0 | 0.00 | 0.02 | 0.02 | 87 | 1004.5 |
| 20260510191516 | 46 | 203 | 2.0 | 4.0 | 0.00 | 0.02 | 0.02 | 87 | 1004.5 |
| 20260510190516 | 46 | 203 | 1.0 | 2.0 | 0.00 | 0.02 | 0.02 | 86 | 1004.5 |
| 20260510185516 | 46 | 180 | 1.0 | 3.0 | 0.00 | 0.02 | 0.02 | 86 | 1004.6 |
| 20260510184516 | 46 | 203 | 3.0 | 5.0 | 0.00 | 0.02 | 0.02 | 85 | 1004.6 |
| 20260510183516 | 46 | 203 | 3.0 | 5.0 | 0.00 | 0.02 | 0.02 | 85 | 1004.5 |
| 20260510182516 | 46 | 203 | 2.0 | 3.0 | 0.00 | 0.02 | 0.02 | 85 | 1004.5 |
| 20260510181516 | 46 | 203 | 2.0 | 4.0 | 0.00 | 0.02 | 0.02 | 85 | 1004.7 |
| 20260510180516 | 46 | 180 | 1.0 | 3.0 | 0.01 | 0.02 | 0.02 | 85 | 1004.7 |
| 20260510175516 | 46 | 203 | 2.0 | 3.0 | 0.01 | 0.02 | 0.02 | 85 | 1004.6 |
| 20260510174516 | 46 | 203 | 2.0 | 3.0 | 0.01 | 0.02 | 0.02 | 84 | 1004.8 |
| 20260510173516 | 46 | 203 | 2.0 | 4.0 | 0.02 | 0.02 | 0.02 | 84 | 1004.8 |
| 20260510172515 | 46 | 203 | 1.0 | 2.0 | 0.02 | 0.02 | 0.02 | 84 | 1005.0 |
| 20260510171516 | 46 | 203 | 1.0 | 4.0 | 0.02 | 0.02 | 0.02 | 84 | 1005.1 |
| 20260510170516 | 46 | 225 | 2.0 | 4.0 | 0.02 | 0.02 | 0.02 | 83 | 1005.2 |
| 20260510165516 | 46 | 270 | 1.0 | 3.0 | 0.02 | 0.02 | 0.02 | 82 | 1005.3 |
| 20260510164556 | 46 | 225 | 1.0 | 4.0 | 0.02 | 0.02 | 0.02 | 81 | 1005.5 |
| 20260510163516 | 47 | 248 | 2.0 | 4.0 | 0.01 | 0.01 | 0.01 | 79 | 1005.8 |
| 20260510162515 | 47 | 248 | 2.0 | 6.0 | 0.00 | 0.00 | 0.00 | 77 | 1005.9 |
| 20260510161556 | 48 | 248 | 5.0 | 9.0 | 0.00 | 0.00 | 0.00 | 75 | 1006.0 |
| 20260510160536 | 49 | 248 | 6.0 | 12.0 | 0.00 | 0.00 | 0.00 | 71 | 1006.0 |
| 20260510155516 | 49 | 248 | 5.0 | 11.0 | 0.00 | 0.00 | 0.00 | 69 | 1006.0 |
| 20260510154516 | 50 | 225 | 6.0 | 14.0 | 0.00 | 0.00 | 0.00 | 66 | 1006.1 |
| 20260510153515 | 52 | 225 | 5.0 | 11.0 | 0.00 | 0.00 | 0.00 | 61 | 1006.2 |
| 20260510152516 | 52 | 225 | 7.0 | 12.0 | 0.00 | 0.00 | 0.00 | 58 | 1006.2 |
| 20260510151515 | 53 | 225 | 5.0 | 11.0 | 0.00 | 0.00 | 0.00 | 56 | 1006.3 |
| 20260510150535 | 54 | 225 | 6.0 | 14.0 | 0.00 | 0.00 | 0.00 | 54 | 1006.3 |
| 20260510145536 | 54 | 203 | 7.0 | 13.0 | 0.00 | 0.00 | 0.00 | 49 | 1006.3 |
| 20260510144535 | 54 | 203 | 9.0 | 16.0 | 0.00 | 0.00 | 0.00 | 47 | 1006.4 |
| 20260510143516 | 55 | 203 | 6.0 | 11.0 | 0.00 | 0.00 | 0.00 | 45 | 1006.4 |
| 20260510142515 | 55 | 180 | 7.0 | 11.0 | 0.00 | 0.00 | 0.00 | 44 | 1006.5 |
| 20260510141516 | 55 | 180 | 7.0 | 15.0 | 0.00 | 0.00 | 0.00 | 44 | 1006.5 |
| 20260510140536 | 55 | 203 | 8.0 | 14.0 | 0.00 | 0.00 | 0.00 | 43 | 1006.7 |
| 20260510135515 | 55 | 203 | 7.0 | 11.0 | 0.00 | 0.00 | 0.00 | 42 | 1006.8 |
| 20260510134516 | 55 | 248 | 5.0 | 13.0 | 0.00 | 0.00 | 0.00 | 43 | 1006.9 |
| 20260510133515 | 56 | 225 | 4.0 | 8.0 | 0.00 | 0.00 | 0.00 | 43 | 1007.0 |
| 20260510132516 | 56 | 225 | 5.0 | 8.0 | 0.00 | 0.00 | 0.00 | 43 | 1007.2 |
| 20260510131516 | 55 | 180 | 8.0 | 16.0 | 0.00 | 0.00 | 0.00 | 42 | 1007.2 |
| 20260510130515 | 56 | 180 | 7.0 | 14.0 | 0.00 | 0.00 | 0.00 | 39 | 1007.4 |
| 20260510125515 | 56 | 225 | 5.0 | 12.0 | 0.00 | 0.00 | 0.00 | 40 | 1007.4 |
| 20260510124516 | 57 | 203 | 5.0 | 10.0 | 0.00 | 0.00 | 0.00 | 38 | 1007.5 |
| 20260510123515 | 57 | 203 | 8.0 | 13.0 | 0.00 | 0.00 | 0.00 | 38 | 1007.6 |
| 20260510122516 | 57 | 225 | 7.0 | 11.0 | 0.00 | 0.00 | 0.00 | 38 | 1007.7 |
| 20260510121515 | 57 | 203 | 8.0 | 20.0 | 0.00 | 0.00 | 0.00 | 36 | 1007.8 |
| 20260510120516 | 57 | 180 | 7.0 | 15.0 | 0.00 | 0.00 | 0.00 | 39 | 1007.9 |
| 20260510115516 | 57 | 180 | 9.0 | 17.0 | 0.00 | 0.00 | 0.00 | 35 | 1008.0 |
| 20260510114515 | 58 | 158 | 8.0 | 12.0 | 0.00 | 0.00 | 0.00 | 36 | 1008.0 |
| 20260510113515 | 59 | 180 | 7.0 | 12.0 | 0.00 | 0.00 | 0.00 | 36 | 1008.1 |
| 20260510112536 | 59 | 203 | 9.0 | 15.0 | 0.00 | 0.00 | 0.00 | 35 | 1008.3 |
| 20260510111515 | 59 | 203 | 7.0 | 13.0 | 0.00 | 0.00 | 0.00 | 36 | 1008.4 |
| 20260510110515 | 59 | 180 | 5.0 | 11.0 | 0.00 | 0.00 | 0.00 | 35 | 1008.6 |
| 20260510105515 | 58 | 203 | 8.0 | 13.0 | 0.00 | 0.00 | 0.00 | 36 | 1008.7 |
| 20260510104515 | 58 | 203 | 7.0 | 16.0 | 0.00 | 0.00 | 0.00 | 36 | 1008.8 |
| 20260510103517 | 57 | 203 | 6.0 | 13.0 | 0.00 | 0.00 | 0.00 | 38 | 1008.9 |
| 20260510102517 | 58 | 203 | 5.0 | 8.0 | 0.00 | 0.00 | 0.00 | 38 | 1009.0 |
| 20260510101517 | 58 | 225 | 6.0 | 12.0 | 0.00 | 0.00 | 0.00 | 39 | 1009.1 |
| 20260510100517 | 58 | 203 | 6.0 | 14.0 | 0.00 | 0.00 | 0.00 | 40 | 1009.2 |
| 20260510095517 | 57 | 180 | 7.0 | 11.0 | 0.00 | 0.00 | 0.00 | 40 | 1009.4 |
| 20260510094517 | 57 | 158 | 7.0 | 12.0 | 0.00 | 0.00 | 0.00 | 43 | 1009.7 |
| 20260510093517 | 57 | 180 | 8.0 | 16.0 | 0.00 | 0.00 | 0.00 | 41 | 1009.8 |
| 20260510092517 | 56 | 158 | 4.0 | 11.0 | 0.00 | 0.00 | 0.00 | 46 | 1009.9 |
| 20260510091517 | 55 | 135 | 4.0 | 9.0 | 0.00 | 0.00 | 0.00 | 49 | 1010.2 |
| 20260510090517 | 53 | 203 | 1.0 | 4.0 | 0.00 | 0.00 | 0.00 | 55 | 1010.2 |
| 20260510085537 | 53 | 90 | 3.0 | 7.0 | 0.00 | 0.00 | 0.00 | 52 | 1010.3 |
| 20260510084537 | 53 | 113 | 6.0 | 10.0 | 0.00 | 0.00 | 0.00 | 52 | 1010.5 |
| 20260510083517 | 53 | 180 | 4.0 | 7.0 | 0.00 | 0.00 | 0.00 | 52 | 1010.6 |
| 20260510082517 | 52 | 135 | 4.0 | 7.0 | 0.00 | 0.00 | 0.00 | 54 | 1010.7 |
| 20260510081517 | 51 | 113 | 4.0 | 9.0 | 0.00 | 0.00 | 0.00 | 55 | 1010.9 |
| 20260510080557 | 50 | 113 | 4.0 | 8.0 | 0.00 | 0.00 | 0.00 | 58 | 1011.2 |
| 20260510075517 | 50 | 113 | 3.0 | 5.0 | 0.00 | 0.00 | 0.00 | 58 | 1011.4 |
| 20260510074517 | 49 | 180 | 2.0 | 4.0 | 0.00 | 0.00 | 0.00 | 59 | 1011.5 |
| 20260510073517 | 49 | 158 | 2.0 | 5.0 | 0.00 | 0.00 | 0.00 | 59 | 1011.7 |
| 20260510072517 | 49 | 135 | 2.0 | 6.0 | 0.00 | 0.00 | 0.00 | 59 | 1011.8 |
| 20260510071517 | 48 | 158 | 2.0 | 5.0 | 0.00 | 0.00 | 0.00 | 61 | 1011.9 |
| 20260510070537 | 47 | 135 | 3.0 | 5.0 | 0.00 | 0.00 | 0.00 | 61 | 1012.0 |
| 20260510065537 | 47 | 113 | 3.0 | 7.0 | 0.00 | 0.00 | 0.00 | 63 | 1012.1 |
| 20260510064517 | 46 | 113 | 3.0 | 5.0 | 0.00 | 0.00 | 0.00 | 63 | 1012.2 |
| 20260510063517 | 46 | 158 | 2.0 | 5.0 | 0.00 | 0.00 | 0.00 | 62 | 1012.4 |
| 20260510062517 | 46 | 135 | 2.0 | 5.0 | 0.00 | 0.00 | 0.00 | 63 | 1012.5 |
| 20260510061517 | 46 | 113 | 1.0 | 5.0 | 0.00 | 0.00 | 0.00 | 64 | 1012.6 |
| 20260510060517 | 45 | 113 | 2.0 | 4.0 | 0.00 | 0.00 | 0.00 | 65 | 1012.8 |
| 20260510055517 | 44 | 113 | 3.0 | 7.0 | 0.00 | 0.00 | 0.00 | 65 | 1012.8 |
| 20260510054517 | 43 | 113 | 3.0 | 5.0 | 0.00 | 0.00 | 0.00 | 66 | 1012.9 |
| 20260510053517 | 43 | 113 | 2.0 | 5.0 | 0.00 | 0.00 | 0.00 | 65 | 1013.1 |
| 20260510052517 | 42 | 113 | 2.0 | 5.0 | 0.00 | 0.00 | 0.00 | 66 | 1013.1 |
| 20260510051517 | 42 | 90 | 2.0 | 3.0 | 0.00 | 0.00 | 0.00 | 65 | 1013.3 |
| 20260510050517 | 41 | 90 | 2.0 | 3.0 | 0.00 | 0.00 | 0.00 | 67 | 1013.4 |
| 20260510045517 | 40 | 90 | 1.0 | 4.0 | 0.00 | 0.00 | 0.00 | 67 | 1013.6 |
| 20260510044517 | 39 | 135 | 2.0 | 4.0 | 0.00 | 0.00 | 0.00 | 70 | 1013.7 |
| 20260510043517 | 38 | 113 | 1.0 | 2.0 | 0.00 | 0.00 | 0.00 | 71 | 1013.8 |
| 20260510042517 | 38 | 113 | 2.0 | 4.0 | 0.00 | 0.00 | 0.00 | 71 | 1013.9 |
| 20260510041517 | 38 | 113 | 3.0 | 5.0 | 0.00 | 0.00 | 0.00 | 72 | 1013.9 |
| 20260510040537 | 37 | 113 | 1.0 | 2.0 | 0.00 | 0.00 | 0.00 | 73 | 1014.0 |
| 20260510035517 | 36 | 90 | 2.0 | 3.0 | 0.00 | 0.00 | 0.00 | 76 | 1014.1 |
| 20260510034517 | 35 | 90 | 2.0 | 3.0 | 0.00 | 0.00 | 0.00 | 77 | 1014.2 |
| 20260510033517 | 34 | 135 | 1.0 | 2.0 | 0.00 | 0.00 | 0.00 | 76 | 1014.4 |
| 20260510032517 | 34 | 0.0 | 1.0 | 0.00 | 0.00 | 0.00 | 76 | 1014.6 | |
| 20260510031517 | 34 | 0.0 | 1.0 | 0.00 | 0.00 | 0.00 | 75 | 1014.7 | |
| 20260510030517 | 35 | 0.0 | 0.0 | 0.00 | 0.00 | 0.00 | 74 | 1014.8 | |
| 20260510025517 | 35 | 0.0 | 1.0 | 0.00 | 0.00 | 0.00 | 74 | 1014.9 | |
| 20260510024517 | 35 | 0.0 | 0.0 | 0.00 | 0.00 | 0.00 | 73 | 1015.1 | |
| 20260510023517 | 36 | 135 | 1.0 | 3.0 | 0.00 | 0.00 | 0.00 | 72 | 1015.3 |
| 20260510022517 | 36 | 135 | 1.0 | 2.0 | 0.00 | 0.00 | 0.00 | 70 | 1015.4 |
| 20260510021517 | 37 | 0.0 | 1.0 | 0.00 | 0.00 | 0.00 | 69 | 1015.5 | |
| 20260510020517 | 38 | 0.0 | 1.0 | 0.00 | 0.00 | 0.00 | 68 | 1015.6 | |
| 20260510015517 | 38 | 0.0 | 1.0 | 0.00 | 0.00 | 0.00 | 67 | 1015.7 | |
| 20260510014537 | 39 | 135 | 2.0 | 3.0 | 0.00 | 0.00 | 0.00 | 66 | 1015.9 |
| 20260510013537 | 39 | 113 | 2.0 | 4.0 | 0.00 | 0.00 | 0.00 | 65 | 1016.0 |
| 20260510012517 | 40 | 135 | 2.0 | 3.0 | 0.00 | 0.00 | 0.00 | 64 | 1016.2 |
| 20260510011517 | 40 | 158 | 2.0 | 4.0 | 0.00 | 0.00 | 0.00 | 64 | 1016.3 |
| 20260510010517 | 41 | 158 | 2.0 | 5.0 | 0.00 | 0.00 | 0.00 | 63 | 1016.5 |
| 20260510005517 | 41 | 135 | 2.0 | 4.0 | 0.00 | 0.00 | 0.00 | 62 | 1016.6 |
| 20260510004517 | 41 | 135 | 3.0 | 7.0 | 0.00 | 0.00 | 0.00 | 62 | 1016.7 |
| 20260510003517 | 40 | 135 | 3.0 | 7.0 | 0.00 | 0.00 | 0.00 | 63 | 1016.8 |
| 20260510002517 | 41 | 113 | 2.0 | 4.0 | 0.00 | 0.00 | 0.00 | 62 | 1017.0 |
| 20260510001517 | 41 | 135 | 3.0 | 6.0 | 0.00 | 0.00 | 0.00 | 62 | 1017.0 |
| 20260510000517 | 42 | 135 | 3.0 | 5.0 | 0.00 | 0.00 | 0.00 | 60 | 1017.1 |
| 20260509235517 | 42 | 135 | 2.0 | 5.0 | 0.00 | 0.00 | 0.00 | 59 | 1017.2 |
| 20260509234517 | 43 | 135 | 1.0 | 3.0 | 0.00 | 0.00 | 0.00 | 58 | 1017.4 |
| 20260509233517 | 43 | 113 | 2.0 | 5.0 | 0.00 | 0.00 | 0.00 | 56 | 1017.4 |
| 20260509232517 | 44 | 135 | 4.0 | 6.0 | 0.00 | 0.00 | 0.00 | 56 | 1017.5 |
| 20260509231537 | 44 | 135 | 3.0 | 6.0 | 0.00 | 0.00 | 0.00 | 55 | 1017.6 |
| 20260509230517 | 45 | 135 | 3.0 | 5.0 | 0.00 | 0.00 | 0.00 | 54 | 1017.7 |
| 20260509225517 | 45 | 135 | 5.0 | 10.0 | 0.00 | 0.00 | 0.00 | 54 | 1017.7 |
| 20260509224517 | 45 | 135 | 4.0 | 7.0 | 0.00 | 0.00 | 0.00 | 53 | 1017.8 |
| 20260509223517 | 45 | 135 | 4.0 | 9.0 | 0.00 | 0.00 | 0.00 | 53 | 1017.9 |
| 20260509222537 | 44 | 135 | 3.0 | 7.0 | 0.00 | 0.00 | 0.00 | 55 | 1017.9 |
| 20260509221517 | 42 | 135 | 3.0 | 6.0 | 0.00 | 0.00 | 0.00 | 59 | 1017.9 |
| 20260509220517 | 42 | 135 | 1.0 | 3.0 | 0.00 | 0.00 | 0.00 | 58 | 1018.0 |
| 20260509215516 | 42 | 135 | 1.0 | 3.0 | 0.00 | 0.00 | 0.00 | 56 | 1017.9 |
| 20260509214516 | 43 | 135 | 1.0 | 2.0 | 0.00 | 0.00 | 0.00 | 54 | 1018.0 |
| 20260509213516 | 43 | 135 | 1.0 | 2.0 | 0.00 | 0.00 | 0.00 | 53 | 1018.0 |
| 20260509212516 | 44 | 135 | 2.0 | 2.0 | 0.00 | 0.00 | 0.00 | 51 | 1018.0 |
| 20260509211536 | 45 | 113 | 2.0 | 3.0 | 0.00 | 0.00 | 0.00 | 50 | 1018.0 |
| 20260509210516 | 45 | 135 | 2.0 | 4.0 | 0.00 | 0.00 | 0.00 | 49 | 1018.1 |
| 20260509205516 | 45 | 135 | 2.0 | 3.0 | 0.00 | 0.00 | 0.00 | 49 | 1018.1 |
| 20260509204516 | 46 | 135 | 1.0 | 3.0 | 0.00 | 0.00 | 0.00 | 47 | 1018.1 |
| 20260509203516 | 46 | 135 | 1.0 | 3.0 | 0.00 | 0.00 | 0.00 | 46 | 1018.1 |
| 20260509202516 | 47 | 135 | 2.0 | 4.0 | 0.00 | 0.00 | 0.00 | 45 | 1018.1 |
| 20260509201516 | 47 | 113 | 1.0 | 2.0 | 0.00 | 0.00 | 0.00 | 44 | 1018.1 |
| 20260509200536 | 48 | 113 | 1.0 | 2.0 | 0.00 | 0.00 | 0.00 | 42 | 1018.2 |
| 20260509195516 | 49 | 135 | 2.0 | 3.0 | 0.00 | 0.00 | 0.00 | 41 | 1018.3 |
| 20260509194516 | 50 | 158 | 1.0 | 2.0 | 0.00 | 0.00 | 0.00 | 40 | 1018.3 |
| 20260509193516 | 51 | 158 | 1.0 | 2.0 | 0.00 | 0.00 | 0.00 | 38 | 1018.3 |